This is the latest recevied weather packets stored in our database for station/object DO7VLR-5. If no packets are shown the sender has not sent any weather packets the latest 10 day(s).
| Time | Temp. | Humidity | Pressure | Rain* | Wind** | Luminosity | Snow |
|---|---|---|---|---|---|---|---|
| 1777465816 | 20° C | 34% | 1021.3 hPa | 0 mm | - | - | - |
| 1777464016 | 18.33° C | 36% | 1021.5 hPa | 0 mm | - | - | - |
| 1777462217 | 18.89° C | 35% | 1021.7 hPa | 0 mm | - | - | - |
| 1777460416 | 17.78° C | 36% | 1021.8 hPa | 0 mm | - | - | - |
| 1777458618 | 17.22° C | 38% | 1021.8 hPa | 0 mm | - | - | - |
| 1777456816 | 16.67° C | 38% | 1021.7 hPa | 0 mm | - | - | - |
| 1777455016 | 16.11° C | 38% | 1021.6 hPa | 0 mm | - | - | - |
| 1777453216 | 15.56° C | 40% | 1021.7 hPa | 0 mm | - | - | - |
| 1777451416 | 14.44° C | 41% | 1021.6 hPa | 0 mm | - | - | - |
| 1777449615 | 13.33° C | 42% | 1021.5 hPa | 0 mm | - | - | - |
| 1777447816 | 12.22° C | 43% | 1021.5 hPa | 0 mm | - | - | - |
| 1777446017 | 11.67° C | 44% | 1021.3 hPa | 0 mm | - | - | - |
| 1777444218 | 10.56° C | 46% | 1021.3 hPa | 0 mm | - | - | - |
| 1777442419 | 10° C | 46% | 1021.2 hPa | 0 mm | - | - | - |
| 1777440617 | 9.44° C | 49% | 1020.9 hPa | 0 mm | - | - | - |
| 1777438817 | 8.33° C | 50% | 1020.5 hPa | 0 mm | - | - | - |
| 1777437017 | 8.33° C | 51% | 1020.2 hPa | 0 mm | - | - | - |
| 1777435217 | 8.89° C | 52% | 1020.2 hPa | 0 mm | - | - | - |
| 1777433417 | 8.89° C | 53% | 1019.9 hPa | 0 mm | - | - | - |
| 1777431618 | 9.44° C | 54% | 1019.8 hPa | 0 mm | - | - | - |
| 1777429817 | 9.44° C | 54% | 1019.5 hPa | 0 mm | - | - | - |
| 1777428017 | 10° C | 54% | 1019.4 hPa | 0 mm | - | - | - |
| 1777426216 | 10° C | 54% | 1019.2 hPa | 0 mm | - | - | - |
| 1777424416 | 10.56° C | 54% | 1019.5 hPa | 0 mm | - | - | - |
| 1777422616 | 11.11° C | 54% | 1019.5 hPa | 0 mm | - | - | - |
* Rain latest hour (hover to see other rain measurements)
** Current wind speed in m/s (hover to see current wind gust speed)